Other Public Products
Issued by NWS Grand Forks, ND

Home | Current Version | Previous Version | Text Only | Print | Product List | Glossary On
Versions: 1 2 3 4 5 6 7 8 9 10 11 12 13 14 15 16 17 18 19 20 21 22 23 24 25 26 27 28 29 30 31 32 33 34 35 36 37 38 39 40 41 42 43 44 45 46 47 48 49 50
000
FPUS83 KFGF 231131
OPUFGF
PRAIRIE TO PINES WEATHER ROUNDUP
NATIONAL WEATHER SERVICE EASTERN NORTH DAKOTA/GRAND FORKS ND
600 AM CDT TUE SEP 23 2014

 **SATELLITE DATA USED TO AUGMENT SKY COVER AT AUTOMATED STATIONS**
 *****  WEATHER ACROSS EASTERN NORTH DAKOTA  *****

CITY           SKY/WX    TMP DP  RH WIND       PRES   REMARKS
GRAND FORKS    CLEAR     52  48  86 S8        30.02R
GRAND FORKS AF CLEAR     51  50  97 S10       30.02R
GRAND CITY NWS   N/A     52 N/A N/A S13         N/A
BUXTON           N/A     51  51  99 SE6         N/A
DEVILS LAKE    CLEAR     55  46  71 SE10      29.95F
FARGO          CLEAR     57  48  72 SE12      30.04S
WAHPETON ARPT  SUNNY     50  45  81 SE8       30.06S
$$

 *****  WEATHER ACROSS CENTRAL AND WESTERN NORTH DAKOTA  *****

CITY           SKY/WX    TMP DP  RH WIND       PRES   REMARKS
JAMESTOWN      PTCLDY    56  50  80 S9        29.98R
BISMARCK       CLEAR     55  53  93 SE8       29.92R
MINOT          CLEAR     52  48  86 SE5       29.88F
MINOT AFB      CLEAR     50  49  99 SE6       29.88F
GARRISON         N/A     54  52  93 SE7       29.89S
WILLISTON      CLEAR     50  46  86 NE6       29.85S
DICKINSON      CLEAR     51  48  89 SE8       29.86R
HETTINGER      PTCLDY    52  49  89 CALM      29.90R
$$

 *****  OTHER OBSERVATIONS NORTHEAST NORTH DAKOTA  *****

CITY           SKY/WX    TMP DP  RH WIND       PRES   REMARKS
WALHALLA       FAIR      52  50  93 S5        29.98F
LANGDON        FAIR      52  46  82 S9        29.98F
CAVALIER       FAIR      48  46  93 S6        30.00S
GRAFTON        FAIR      48  48 100 S8        30.01S
CANDO          FAIR      50  50 100 SE9       29.96S
FORT TOTTEN      N/A     55  49  80 SE7       29.95S
ROLLA          FAIR      50  50 100 S6        29.95F
RUGBY          FAIR      55  50  82 SE8       29.92F
 ***** THE ABOVE OBSERVATIONS ARE NON NWS ARE NOT QUALITY
        CONTROLLED AND MAY MIS-REPORT RAIN FOR SNOW...
$$

 *****  OTHER OBSERVATIONS SOUTHEAST NORTH DAKOTA *****

CITY           SKY/WX    TMP DP  RH WIND       PRES   REMARKS
COOPERSTOWN    NOT AVBL
VALLEY CITY    FAIR      54  54 100 S7        30.01S
OAKES            N/A     54  54 100 SE8       30.01S
GWINNER        SUNNY     55  54  94 SE7       30.03S
BUFFALO          N/A     51  48  91 SE9         N/A
WYNDMERE         N/A     52  50  93 SE6         N/A
 ***** THE ABOVE OBSERVATIONS ARE NON NWS ARE NOT QUALITY
       CONTROLLED AND MAY MIS-REPORT RAIN FOR SNOW...
$$

  *****  WEATHER ACROSS NORTHERN MINNESOTA  *****

CITY           SKY/WX    TMP DP  RH WIND       PRES   REMARKS
FLAG ISLAND    CLEAR     57  54  88 SE9       30.05S
WARROAD        CLEAR     52  46  82 S6        30.07S
ROSEAU         CLEAR     52  46  82 S7        30.06S
HALLOCK        CLEAR     52  48  87 SE8       30.02R
THF RVR FALLS  CLEAR     52  46  82 SE7       30.06S
HALSTAD          N/A     51  48  91 SE9         N/A
FOSSTON        CLEAR     52  46  82 CALM      30.08S
BAUDETTE       CLEAR     48  46  93 SE3       30.08S
WASKISH        CLEAR     52  48  87 CALM      30.10S
CROOKSTON      CLEAR     52  48  87 SE8       30.05S
$$
  *****  WEATHER ACROSS CENTRAL AND WEST MINNESOTA  *****

CITY           SKY/WX    TMP DP  RH WIND       PRES   REMARKS
BEMIDJI        FOG       43  43  99 CALM      30.12S VSB 1/2
PARK RAPIDS    CLEAR     49  46  90 SE7       30.12S
WADENA         CLEAR     46  45  93 SE3       30.12S
DETROIT LAKES  CLEAR     54  50  87 SE6       30.10S
MOORHEAD       CLEAR     57  52  82 S9        30.06S
FERGUS FALLS   CLEAR     55  46  71 SE9       30.09S
ELBOW LAKE     FAIR      51  48  87 SE9       30.09S
MORRIS MN      CLEAR     50  48  93 SE9       30.09S
STAPLES        CLEAR     45  45 100 CALM      30.14R
WHEATON        CLEAR     48  46  93 SE9       30.09S
$$
  *****  WEATHER ELSEWHERE ACROSS MINNESOTA  *****

CITY           SKY/WX    TMP DP  RH WIND       PRES   REMARKS
DULUTH         CLEAR     51  46  83 CALM      30.18R
INTRNTL FALLS  CLEAR     42  42 100 SE5       30.12S
ELY            CLEAR     39  37  93 CALM      30.17S
CLOQUET        CLEAR     46  45  93 S2        30.18R
BRAINERD       CLEAR     45  44  97 CALM      30.16S
HIBBING        FOG       38  36  92 CALM      30.17R VSB 1/4
ALEXANDRIA     CLEAR     52  47  83 SE8       30.13S
SAINT CLOUD    CLEAR     47  45  93 CALM      30.17S
MINNEAPOLIS    CLEAR     52  48  86 E5        30.20R
$$

  *****  WEATHER ACROSS SOUTH DAKOTA  *****

CITY           SKY/WX    TMP DP  RH WIND       PRES   REMARKS
SIOUX FALLS    CLOUDY    59  52  77 S8        30.11S
BROOKINGS      NOT AVBL
WATERTOWN      MOCLDY    54  49  83 SE13      30.07S
HURON          CLOUDY    61  53  75 S8        30.02F
SISSETON         N/A     49  48  97 S6        30.05F
ABERDEEN       PTCLDY    58  52  80 SE8       30.00S
MITCHELL       CLOUDY    62  55  77 S9G18     30.05F
PIERRE         MOCLDY    61  53  75 SE24G30   29.93F
MOBRIDGE       CLOUDY    64  56  75 S17       29.91S
RAPID CITY     MOCLDY    57  54  89 NW6       29.91S
$$

  *****  SOME WEATHER IN NEARBY STATES *****

CITY           SKY/WX    TMP DP  RH WIND       PRES   REMARKS
GLASGOW MT     CLEAR     48  44  86 N5        29.84R
GREAT FALLS MT CLEAR     59  47  64 SW14      29.96R
CHEYENNE WY    PTCLDY    56  44  64 W15       30.15S
SCOTTSBLUFF NE CLEAR     51  48  89 NW3       30.00S
OMAHA NE       CLOUDY    61  52  72 S10       30.17S
DES MOINES IA  MOCLDY    54  49  83 S8        30.23S
DAVENPORT IA   CLEAR     45  41  86 SE5       30.29R
CHICAGO IL     CLEAR     51  43  74 W3        30.30R
EAU CLAIRE WI  FOG       43  42  97 CALM      30.23R VSB 1/2
LA CROSSE WI   FOG       50  49  96 SE6       30.25R VSB 3/4
$$

  *****  SOME NATIONAL WEATHER *****

CITY           SKY/WX    TMP DP  RH WIND       PRES   REMARKS
LA GUARDIA NY  PTCLDY    54  41  61 N7        30.28R
RALEIGH NC     CLOUDY    58  47  66 NE9G16    30.25R
ATLANTA GA     PTCLDY    62  54  74 NE8       30.17R
NEW ORLEANS LA CLEAR     71  56  58 NE15      30.06R
OKLAHOMA CITY  PTCLDY    55  50  83 S6        30.18S
ALBUQUERQUE NM PTCLDY    62  56  80 SW5       30.26R
SALT LAKE CITY PTCLDY    60  54  80 SE6       30.11S
LOS ANGELES CA PTCLDY    65  61  86 CALM      29.94F
BOISE ID       PTCLDY    65  52  62 SE10      29.98F
SEATTLE WA     CLOUDY    60  57  89 W5        29.88S
$$

*** WEATHER ACROSS MANITOBA...SASKATCHEWAN AND ONTARIO ***
                ***ONTARIO***

CITY           SKY/WX    TMP DP  RH WIND       PRES   REMARKS
GERALDTON      FOG       48  48 100 NE3       30.14R VSB 1/2
THUNDER BAY    PTCLDY    46  46 100 NW3       30.13R
SIOUX LOOKOUT  CLEAR     45  45 100 SE2       30.11
TORONTO        MOCLDY    48  45  87 W8        30.25R
BIG TROUT LK   LGT RAIN  45  45 100 SE12G17   30.09F FOG
PICKLE LAKE    PTCLDY    50  48  93 SE9       30.09
DRYDEN         NOT AVBL
KENORA         CLEAR     54  48  82 S6        30.08S
$$
                *** MANITOBA***

CITY           SKY/WX    TMP DP  RH WIND       PRES   REMARKS
BRANDON        CLEAR     46  45  93 E6        29.92F
DAUPHIN        CLEAR     57  48  72 CALM      29.87S
ISLAND LAKE    CLEAR     52  50  93 S6        29.94F
PILOT MOUND      N/A     50  46  87 S8          N/A
THE PAS        CLEAR     50  48  93 SE10      29.75S
THOMPSON       PTCLDY    46  46 100 SE6       29.79F
WINNIPEG       CLEAR     54  48  82 S15       29.98F
LYNN LAKE      CLEAR     46  46 100 SE3       29.68F
CHURCHILL      CLOUDY    39  37  93 S20G29    29.83F
GILLAM         CLOUDY    45  45 100 S9        29.89F
$$
                ***SASKATCHEWAN***

CITY           SKY/WX    TMP DP  RH WIND       PRES   REMARKS
ESTEVAN        CLEAR     48  46  93 E7        29.87R
KINDERSLEY     PTCLDY    48  45  87 S8        29.78R
LLOYDMINSTER   CLEAR     55  43  62 W18       29.73S
PRINCE ALBERT  CLEAR     45  43  93 CALM      29.71S
REGINA         CLEAR     50  48  93 SE13      29.83R
YORKTON        CLEAR     50  46  87 S9        29.84R


USA.gov is the U.S. government's official web portal to all federal, state and local government web resources and services.